FW3222 Weather Reports


Display with metric or nautical units.
time (UTC)temp
F
wind
direction
speed
MPH
gust
MPH
rain 1hr
in
rain 24hr
in
rain mn
in
humidity
%
barometer
mb
20260510220703 62 0 0.0 2.0 0.00 0.09 0.09 72 1015.5
20260510215925 62 20 0.0 0.0 0.00 0.09 0.09 72 1015.5
20260510215621 62 20 0.0 1.0 0.00 0.09 0.09 72 1015.4
20260510214911 62 96 0.0 3.0 0.00 0.09 0.09 72 1015.3
20260510214603 62 36 0.0 3.0 0.00 0.09 0.09 71 1015.4
20260510214256 63 57 0.0 6.0 0.00 0.09 0.09 71 1015.4
20260510213956 63 60 0.0 6.0 0.00 0.09 0.09 72 1015.4
20260510213653 63 0 0.0 6.0 0.00 0.09 0.09 72 1015.5
20260510212511 64 283 0.0 6.0 0.00 0.09 0.09 71 1015.4
20260510212202 64 5 0.0 4.0 0.00 0.09 0.09 72 1015.4
20260510211904 64 349 0.0 3.0 0.00 0.09 0.09 73 1015.3
20260510211606 64 184 0.0 0.0 0.00 0.09 0.09 73 1015.2
20260510211254 64 227 0.0 0.0 0.00 0.09 0.09 72 1015.2
20260510210942 64 227 0.0 0.0 0.00 0.08 0.08 72 1015.0
20260510210639 64 227 0.0 0.0 0.04 0.08 0.08 72 1015.1
20260510210329 64 227 0.0 0.0 0.05 0.08 0.08 72 1015.0
20260510210026 65 227 0.0 0.0 0.06 0.08 0.08 71 1015.0
20260510205721 65 227 0.0 0.0 0.10 0.08 0.08 71 1014.9
20260510205417 65 227 0.0 0.0 0.25 0.08 0.08 71 1014.9
20260510204657 65 288 0.0 0.0 0.00 0.02 0.03 69 1014.9
20260510203931 65 296 0.0 3.0 0.00 0.02 0.02 66 1014.8
20260510203629 65 297 0.0 3.0 0.00 0.02 0.02 66 1015.0
20260510203323 66 324 0.0 3.0 0.00 0.02 0.02 66 1015.0
20260510203020 66 73 1.0 3.0 0.00 0.02 0.02 66 1014.9
20260510202716 66 338 0.0 3.0 0.00 0.02 0.02 66 1015.0
20260510202005 66 315 0.0 3.0 0.00 0.02 0.02 65 1014.9
20260510201701 66 319 0.0 3.0 0.00 0.02 0.02 66 1014.9
20260510201349 66 312 1.0 3.0 0.00 0.02 0.02 66 1014.9
20260510201038 66 338 1.0 3.0 0.00 0.02 0.02 66 1014.8
20260510200739 66 329 1.0 3.0 0.00 0.02 0.02 67 1014.8
20260510200438 66 270 0.0 2.0 0.00 0.02 0.02 67 1014.8
20260510200135 66 341 0.0 2.0 0.00 0.02 0.02 68 1014.7
20260510195827 66 5 0.0 2.0 0.00 0.02 0.02 69 1014.7
20260510195529 66 329 0.0 2.0 0.00 0.02 0.02 70 1014.7
20260510195231 65 310 0.0 2.0 0.00 0.02 0.02 69 1014.9
20260510194935 65 312 0.0 0.0 0.00 0.02 0.02 69 1014.8
20260510194622 65 288 0.0 0.0 0.00 0.02 0.02 70 1015.0
20260510194318 65 288 0.0 0.0 0.00 0.02 0.02 70 1014.8
20260510194017 65 288 0.0 0.0 0.00 0.02 0.02 71 1015.0
20260510193706 65 288 0.0 0.0 0.00 0.02 0.02 71 1015.0
20260510192955 65 288 0.0 0.0 0.00 0.02 0.02 69 1015.3
20260510192643 65 288 0.0 0.0 0.00 0.02 0.02 69 1015.1
20260510192336 65 288 0.0 0.0 0.00 0.02 0.02 69 1015.2
20260510192036 65 288 0.0 0.0 0.00 0.02 0.02 68 1015.2
20260510191734 65 288 0.0 0.0 0.00 0.02 0.02 68 1015.2
20260510190540 66 288 0.0 0.0 0.00 0.02 0.02 68 1015.1
20260510190227 66 288 0.0 0.0 0.00 0.02 0.02 68 1015.0
20260510185924 66 288 0.0 0.0 0.00 0.02 0.02 68 1015.2
20260510185610 66 288 0.0 0.0 0.00 0.02 0.02 68 1015.1
20260510185306 66 288 0.0 0.0 0.00 0.02 0.02 67 1015.1
20260510185004 66 288 0.0 0.0 0.00 0.02 0.02 67 1015.1
20260510184705 66 288 0.0 0.0 0.00 0.02 0.02 67 1015.0
20260510184406 66 355 0.0 3.0 0.00 0.02 0.02 65 1015.0
20260510184059 66 350 0.0 3.0 0.00 0.02 0.02 65 1014.9
20260510183756 67 326 1.0 6.0 0.00 0.02 0.02 64 1015.0
20260510183445 67 17 1.0 6.0 0.00 0.02 0.02 63 1014.8
20260510183147 67 350 1.0 6.0 0.00 0.02 0.02 62 1014.9
20260510182849 67 306 2.0 6.0 0.00 0.02 0.02 61 1015.0
20260510182540 67 304 2.0 6.0 0.00 0.02 0.02 61 1014.8
20260510181812 68 322 0.0 4.0 0.00 0.03 0.02 62 1014.8
20260510181509 68 308 1.0 4.0 0.00 0.03 0.02 61 1014.9
20260510181205 68 300 1.0 4.0 0.00 0.03 0.02 62 1014.9
20260510180853 68 288 1.0 4.0 0.00 0.03 0.02 61 1014.9
20260510180125 68 315 0.0 3.0 0.00 0.03 0.02 60 1014.8
20260510175410 68 43 0.0 3.0 0.00 0.23 0.02 61 1014.8
20260510175108 68 237 0.0 3.0 0.00 0.23 0.02 61 1014.9
20260510174804 68 250 0.0 3.0 0.00 0.23 0.02 62 1015.0
20260510174450 67 289 0.0 2.0 0.00 0.23 0.02 63 1014.9
20260510174141 67 350 0.0 2.0 0.00 0.23 0.02 63 1014.9
20260510173838 67 292 0.0 2.0 0.00 0.23 0.02 63 1015.0
20260510173531 67 248 0.0 2.0 0.00 0.23 0.02 63 1015.0
20260510173223 67 271 1.0 3.0 0.00 0.23 0.02 63 1015.0
20260510172924 67 346 1.0 3.0 0.00 0.23 0.02 63 1015.0
20260510171317 66 292 1.0 3.0 0.00 0.23 0.02 65 1014.9
20260510171011 66 289 1.0 3.0 0.00 0.23 0.02 64 1014.9
20260510170711 66 294 1.0 3.0 0.00 0.23 0.02 64 1015.0
20260510170406 67 331 0.0 2.0 0.00 0.23 0.02 64 1015.0
20260510170056 67 285 0.0 2.0 0.00 0.23 0.02 65 1015.0
20260510165333 67 300 0.0 0.0 0.00 0.23 0.02 64 1014.9
20260510165036 67 292 0.0 4.0 0.00 0.23 0.02 63 1014.9
20260510164738 67 320 0.0 3.0 0.00 0.23 0.02 63 1014.9
20260510164030 67 321 0.0 2.0 0.00 0.25 0.02 61 1014.9
20260510163734 67 209 0.0 2.0 0.00 0.25 0.02 61 1014.9
20260510163008 67 203 1.0 5.0 0.00 0.25 0.02 60 1014.9
20260510162700 67 295 0.0 3.0 0.00 0.25 0.02 61 1014.8
20260510162352 67 218 0.0 3.0 0.00 0.25 0.02 60 1014.8
20260510162038 67 268 1.0 2.0 0.00 0.25 0.02 61 1014.8
20260510160905 66 224 2.0 6.0 0.00 0.25 0.02 61 1015.0
20260510160604 66 229 2.0 6.0 0.00 0.25 0.02 60 1015.1
20260510160305 66 197 1.0 6.0 0.00 0.25 0.02 60 1015.0
20260510155956 66 166 1.0 6.0 0.00 0.25 0.02 61 1015.0
20260510155658 66 255 1.0 6.0 0.00 0.27 0.02 60 1015.1
20260510155346 67 186 1.0 6.0 0.00 0.27 0.02 60 1015.0
20260510155043 66 185 0.0 8.0 0.00 0.27 0.02 61 1015.1
20260510154736 66 5 0.0 8.0 0.00 0.27 0.02 63 1015.1
20260510154426 66 179 0.0 8.0 0.00 0.28 0.02 64 1015.2
20260510154130 66 303 2.0 8.0 0.00 0.28 0.02 63 1015.3
20260510153828 66 309 2.0 8.0 0.00 0.28 0.02 63 1015.2
20260510153528 66 211 2.0 8.0 0.00 0.28 0.02 62 1015.2
20260510152400 66 302 2.0 7.0 0.00 0.30 0.02 63 1015.2
20260510152053 66 327 2.0 7.0 0.00 0.30 0.02 62 1015.3
20260510151754 66 287 1.0 7.0 0.00 0.32 0.02 63 1015.1
20260510151451 66 262 1.0 6.0 0.00 0.33 0.02 65 1015.2
20260510151138 65 273 1.0 6.0 0.00 0.33 0.02 65 1015.0
20260510150839 65 313 1.0 6.0 0.00 0.33 0.02 64 1014.9
20260510150541 65 275 2.0 6.0 0.00 0.35 0.02 64 1014.9
20260510150232 65 284 2.0 6.0 0.00 0.35 0.02 65 1014.8
20260510145928 65 298 1.0 6.0 0.00 0.37 0.02 66 1014.7
20260510145617 64 268 1.0 4.0 0.00 0.38 0.02 66 1014.6
20260510145306 64 298 1.0 3.0 0.00 0.38 0.02 66 1014.6
20260510144536 64 13 0.0 3.0 0.00 0.40 0.02 66 1014.6
20260510144233 64 5 0.0 3.0 0.00 0.40 0.02 65 1014.6
20260510143513 64 18 1.0 2.0 0.00 0.40 0.02 64 1014.4
20260510143215 64 305 0.0 2.0 0.00 0.40 0.02 66 1014.4
20260510142903 64 298 0.0 2.0 0.00 0.40 0.02 66 1014.3
20260510142606 63 318 0.0 2.0 0.00 0.42 0.02 66 1014.3
20260510142306 63 318 0.0 2.0 0.00 0.42 0.02 66 1014.3
20260510142003 63 254 0.0 2.0 0.00 0.42 0.02 67 1014.3
20260510141704 63 228 0.0 2.0 0.00 0.42 0.02 67 1014.2
20260510141400 63 223 0.0 2.0 0.00 0.42 0.02 66 1014.2
20260510141059 63 182 0.0 2.0 0.00 0.42 0.02 67 1014.2
20260510140746 63 130 0.0 2.0 0.00 0.42 0.02 66 1014.2
20260510140435 63 229 0.0 1.0 0.00 0.43 0.02 68 1014.3
20260510140130 62 111 0.0 2.0 0.00 0.43 0.02 67 1014.2
20260510135831 62 106 0.0 2.0 0.00 0.43 0.02 68 1014.1
20260510135527 62 122 0.0 2.0 0.00 0.43 0.02 68 1014.1
20260510135223 62 244 0.0 2.0 0.00 0.43 0.02 67 1014.1
20260510134921 62 171 0.0 7.0 0.00 0.43 0.02 67 1014.1
20260510134615 62 155 0.0 7.0 0.00 0.43 0.02 67 1014.1
20260510134316 62 180 0.0 7.0 0.00 0.43 0.02 68 1014.2
20260510133559 61 294 1.0 7.0 0.00 0.43 0.02 68 1014.1
20260510133255 61 337 2.0 7.0 0.00 0.43 0.02 70 1014.2
20260510132952 61 285 1.0 6.0 0.00 0.43 0.02 70 1014.1
20260510132643 61 215 1.0 3.0 0.00 0.43 0.02 70 1014.1
20260510132340 61 284 1.0 3.0 0.00 0.43 0.02 72 1014.2
20260510132032 60 11 1.0 3.0 0.00 0.43 0.02 73 1014.2
20260510131723 60 297 1.0 3.0 0.00 0.43 0.02 74 1014.2
20260510131426 60 283 0.0 3.0 0.00 0.43 0.02 74 1014.2
20260510131129 59 209 0.0 2.0 0.00 0.43 0.02 74 1014.2
20260510130815 59 309 0.0 2.0 0.00 0.43 0.02 75 1014.2
20260510125624 58 221 0.0 5.0 0.00 0.43 0.02 75 1014.1
20260510125325 58 242 0.0 5.0 0.00 0.43 0.02 75 1014.1
20260510125029 58 348 1.0 5.0 0.00 0.43 0.02 76 1014.0
20260510124720 58 308 0.0 5.0 0.00 0.43 0.02 76 1014.1
20260510124406 58 281 0.0 5.0 0.00 0.43 0.02 76 1014.1
20260510124053 58 290 0.0 5.0 0.00 0.43 0.02 76 1014.0
20260510123747 58 274 0.0 5.0 0.00 0.43 0.02 76 1013.9
20260510123444 58 326 1.0 3.0 0.00 0.43 0.02 77 1014.0
20260510123140 57 301 1.0 3.0 0.00 0.43 0.02 77 1013.8
20260510122841 57 262 1.0 3.0 0.00 0.43 0.02 77 1013.9
20260510122535 57 299 0.0 3.0 0.00 0.43 0.02 77 1013.9
20260510122238 57 250 0.0 3.0 0.00 0.43 0.02 78 1013.8
20260510121928 57 261 0.0 3.0 0.00 0.43 0.02 78 1013.8
20260510121626 57 342 0.0 2.0 0.00 0.43 0.02 79 1013.9
20260510120913 56 296 0.0 0.0 0.00 0.43 0.02 79 1013.9
20260510120612 56 336 0.0 0.0 0.00 0.43 0.02 79 1013.9
20260510120309 56 137 0.0 0.0 0.00 0.43 0.02 79 1013.8
20260510120005 55 152 0.0 0.0 0.00 0.43 0.02 80 1014.0
20260510115249 55 294 0.0 0.0 0.00 0.43 0.02 80 1014.1
20260510114938 55 161 0.0 0.0 0.00 0.43 0.02 80 1014.1
20260510114629 55 194 0.0 0.0 0.00 0.43 0.02 80 1014.1
20260510114323 54 140 0.0 0.0 0.00 0.43 0.02 80 1013.9
20260510114013 54 24 0.0 0.0 0.00 0.43 0.02 81 1014.0
20260510113708 54 89 0.0 0.0 0.00 0.43 0.02 81 1013.8
20260510113403 54 89 0.0 0.0 0.00 0.43 0.02 81 1013.7
20260510113058 53 89 0.0 0.0 0.00 0.43 0.02 80 1013.6
20260510112757 53 89 0.0 0.0 0.00 0.43 0.02 80 1013.6
20260510112458 53 89 0.0 0.0 0.00 0.43 0.02 81 1013.6
20260510111736 52 89 0.0 0.0 0.00 0.43 0.02 81 1013.4
20260510111433 52 89 0.0 0.0 0.00 0.43 0.02 80 1013.4
20260510110240 51 89 0.0 0.0 0.00 0.43 0.02 80 1013.3
20260510105939 51 89 0.0 0.0 0.00 0.43 0.02 80 1013.3
20260510105628 50 89 0.0 0.0 0.00 0.43 0.02 80 1013.2
20260510105330 50 89 0.0 0.0 0.00 0.43 0.02 80 1013.2
20260510105020 50 89 0.0 0.0 0.00 0.43 0.02 80 1013.1
20260510104719 50 89 0.0 0.0 0.00 0.43 0.02 80 1013.2
20260510103131 50 89 0.0 0.0 0.00 0.43 0.02 80 1012.9
20260510102408 50 19 0.0 0.0 0.00 0.43 0.02 80 1012.7
20260510102111 51 19 0.0 0.0 0.00 0.43 0.02 79 1012.7
20260510101800 51 19 0.0 0.0 0.00 0.43 0.02 79 1012.6
20260510101503 51 19 0.0 0.0 0.00 0.43 0.02 80 1012.6
20260510101149 51 19 0.0 0.0 0.00 0.43 0.02 80 1012.4
20260510100845 51 19 0.0 0.0 0.00 0.43 0.02 80 1012.3
20260510100121 51 19 0.0 0.0 0.00 0.43 0.02 79 1012.3
20260510095359 51 43 0.0 0.0 0.00 0.43 0.02 79 1012.1
20260510095103 52 43 0.0 1.0 0.00 0.43 0.02 79 1012.2
20260510094755 52 43 0.0 1.0 0.00 0.43 0.02 80 1012.3
20260510094450 52 84 0.0 0.0 0.00 0.43 0.02 80 1012.4
20260510094145 52 153 0.0 0.0 0.00 0.43 0.02 80 1012.3
20260510093835 52 182 0.0 0.0 0.00 0.43 0.02 80 1012.3
20260510093525 52 182 0.0 0.0 0.00 0.43 0.02 80 1012.4
20260510093222 52 182 0.0 2.0 0.00 0.43 0.02 80 1012.3
20260510092506 52 154 0.0 4.0 0.00 0.43 0.02 80 1012.0
20260510092205 53 198 0.0 4.0 0.00 0.43 0.02 80 1011.9
20260510091856 53 215 0.0 4.0 0.00 0.43 0.02 80 1011.9
20260510091542 53 107 0.0 4.0 0.00 0.43 0.02 80 1011.8
20260510091235 53 174 0.0 4.0 0.00 0.43 0.02 80 1012.0
20260510090931 53 178 0.0 4.0 0.00 0.43 0.02 80 1012.1
20260510090623 53 126 0.0 0.0 0.00 0.43 0.02 80 1012.1
20260510090312 53 149 0.0 0.0 0.00 0.43 0.02 80 1012.2
20260510090011 53 164 0.0 0.0 0.04 0.43 0.02 80 1012.4
20260510085658 52 134 0.0 0.0 0.04 0.43 0.02 80 1012.5
20260510084933 52 161 0.0 0.0 0.04 0.43 0.02 80 1013.2
20260510084619 52 245 0.0 0.0 0.04 0.43 0.02 80 1013.3
20260510084323 52 317 0.0 0.0 0.00 0.42 0.01 80 1013.3
20260510084015 52 317 0.0 0.0 0.00 0.42 0.01 80 1013.2
20260510083709 52 321 1.0 0.0 0.00 0.42 0.01 80 1013.3
20260510083401 52 321 1.0 8.0 0.00 0.42 0.01 80 1013.2
20260510083047 52 260 1.0 8.0 0.00 0.41 0.00 80 1013.1
20260510082740 52 9 1.0 8.0 0.00 0.41 0.00 80 1013.5
20260510082015 51 88 0.0 8.0 0.00 0.41 0.00 80 1013.0
20260510081714 51 342 0.0 2.0 0.00 0.41 0.00 80 1012.7
20260510081402 51 319 0.0 0.0 0.00 0.41 0.00 80 1012.0
20260510081057 51 15 0.0 0.0 0.00 0.41 0.00 80 1011.9
20260510080744 51 5 0.0 0.0 0.00 0.41 0.00 80 1011.8
20260510080437 51 355 0.0 0.0 0.00 0.41 0.00 80 1011.7
20260510080140 51 355 0.0 0.0 0.00 0.41 0.00 80 1011.6
20260510075424 51 286 0.0 0.0 0.00 0.41 0.00 80 1011.5
20260510075125 51 286 0.0 0.0 0.00 0.41 0.00 80 1011.5
20260510074815 51 286 0.0 0.0 0.00 0.41 0.00 80 1011.4
20260510074515 51 286 0.0 0.0 0.00 0.41 0.00 80 1011.3
20260510074206 51 286 0.0 0.0 0.00 0.41 0.00 80 1011.4
20260510073903 51 219 0.0 0.0 0.00 0.41 0.00 80 1011.4
20260510073602 51 115 0.0 0.0 0.00 0.41 0.00 80 1011.3
20260510073303 51 115 0.0 0.0 0.00 0.41 0.00 80 1011.2
20260510072955 51 115 0.0 0.0 0.00 0.41 0.00 80 1011.2
20260510072641 51 115 0.0 0.0 0.00 0.41 0.00 80 1011.2
20260510072332 51 122 0.0 0.0 0.00 0.41 0.00 80 1011.2
20260510071608 51 126 0.0 0.0 0.00 0.41 0.00 80 1011.2
20260510071300 51 128 0.0 0.0 0.00 0.41 0.00 80 1011.2
20260510070957 51 129 0.0 0.0 0.00 0.41 0.00 80 1011.3
20260510070643 51 116 0.0 0.0 0.00 0.41 0.00 80 1011.2
20260510070333 51 113 0.0 0.0 0.00 0.41 0.00 80 1011.3
20260510070021 51 194 0.0 0.0 0.00 0.41 0.00 80 1011.2
20260510065725 51 201 0.0 0.0 0.00 0.41 0.00 80 1011.3
20260510065005 51 128 0.0 0.0 0.00 0.41 0.00 80 1011.5
20260510064706 51 146 0.0 0.0 0.00 0.41 0.00 80 1011.6
20260510064401 51 143 0.0 0.0 0.00 0.41 0.00 80 1011.6
20260510064057 51 143 0.0 0.0 0.00 0.41 0.00 80 1011.7
20260510063757 51 143 0.0 0.0 0.00 0.41 0.00 80 1011.8
20260510063036 51 219 0.0 0.0 0.00 0.41 0.00 79 1012.0
20260510062737 51 221 0.0 0.0 0.00 0.41 0.00 79 1012.1
20260510062425 51 223 0.0 0.0 0.00 0.41 0.00 80 1012.1
20260510062127 51 203 0.0 0.0 0.00 0.41 0.00 80 1012.2
20260510061822 51 221 0.0 1.0 0.00 0.41 0.00 80 1012.2
20260510061515 51 188 0.0 0.0 0.00 0.41 0.00 80 1012.2
20260510060756 51 172 0.0 0.0 0.00 0.41 0.00 80 1012.0
20260510060457 51 172 0.0 0.0 0.00 0.41 0.00 80 1012.0
20260510055736 51 153 0.0 0.0 0.00 0.41 0.00 80 1012.1
20260510055441 51 153 1.0 0.0 0.00 0.41 0.00 80 1012.1
20260510055139 51 153 1.0 5.0 0.00 0.41 0.00 80 1012.2
20260510054404 51 151 1.0 5.0 0.00 0.41 0.00 80 1012.1
20260510054106 50 182 0.0 5.0 0.00 0.41 0.00 80 1012.7
20260510053801 50 270 0.0 3.0 0.00 0.41 0.00 79 1012.5
20260510053042 50 92 0.0 0.0 0.00 0.41 0.00 79 1011.6
20260510052742 50 92 0.0 0.0 0.00 0.41 0.00 79 1011.7
20260510052017 50 104 0.0 2.0 0.00 0.41 0.00 79 1011.8
20260510051720 49 123 0.0 1.0 0.00 0.41 0.00 79 1011.9
20260510051416 49 123 0.0 1.0 0.00 0.41 0.00 79 1011.9
20260510045814 48 348 0.0 0.0 0.00 0.41 0.00 74 1012.0
20260510045512 48 348 0.0 0.0 0.00 0.41 0.00 74 1012.0
20260510045206 48 313 0.0 0.0 0.00 0.41 0.00 73 1011.9
20260510044853 48 287 0.0 1.0 0.00 0.41 0.00 73 1011.8
20260510044547 49 272 0.0 1.0 0.00 0.41 0.00 73 1011.7
20260510044235 49 287 0.0 2.0 0.00 0.41 0.00 72 1011.6
20260510043936 49 284 0.0 2.0 0.00 0.41 0.00 71 1011.5
20260510043640 49 315 0.0 0.0 0.00 0.41 0.00 71 1011.4
20260510043344 49 315 0.0 0.0 0.00 0.41 0.00 71 1011.3
20260510042630 49 315 0.0 0.0 0.00 0.41 0.00 71 1011.3
20260510042325 49 315 0.0 0.0 0.00 0.41 0.00 71 1011.3
20260510041143 49 315 0.0 0.0 0.00 0.41 0.00 71 1011.3
20260510040416 50 315 0.0 0.0 0.00 0.41 0.00 71 1011.3
20260510040119 50 315 0.0 0.0 0.00 0.41 0.00 71 1011.3
20260510035810 50 315 0.0 0.0 0.00 0.41 0.21 71 1011.3
20260510035509 50 315 0.0 0.0 0.00 0.41 0.21 71 1011.3
20260510035213 50 315 0.0 0.0 0.00 0.41 0.21 71 1011.3
20260510034909 50 315 0.0 0.0 0.00 0.41 0.21 71 1011.3
20260510034600 50 315 0.0 0.0 0.00 0.41 0.21 71 1011.3
20260510034256 50 315 0.0 1.0 0.00 0.41 0.21 71 1011.4
20260510033951 50 315 0.0 0.0 0.00 0.41 0.21 70 1011.4
20260510033641 50 315 0.0 0.0 0.00 0.41 0.21 70 1011.3
20260510033338 50 315 0.0 1.0 0.00 0.41 0.21 70 1011.4
20260510033026 50 315 0.0 0.0 0.00 0.41 0.21 70 1011.3
20260510032718 50 315 0.0 0.0 0.00 0.41 0.21 70 1011.3
20260510032413 51 315 0.0 0.0 0.00 0.41 0.21 70 1011.2
20260510032104 51 315 0.0 0.0 0.00 0.41 0.21 69 1011.3
20260510030916 51 315 0.0 0.0 0.00 0.41 0.21 69 1011.5
20260510030620 51 315 0.0 0.0 0.00 0.41 0.21 69 1011.5
20260510030319 51 315 0.0 1.0 0.00 0.41 0.21 68 1011.4
20260510030021 51 315 0.0 1.0 0.00 0.41 0.21 68 1011.5
20260510025716 51 5 0.0 0.0 0.00 0.41 0.21 68 1011.4
20260510024539 51 70 0.0 0.0 0.00 0.41 0.21 68 1011.5
20260510024243 52 70 0.0 0.0 0.00 0.41 0.21 68 1011.4
20260510023930 52 70 0.0 0.0 0.00 0.41 0.21 68 1011.3
20260510023623 52 70 0.0 0.0 0.00 0.41 0.21 68 1011.4
20260510023319 52 70 0.0 0.0 0.00 0.41 0.21 68 1011.3
20260510023023 52 70 0.0 0.0 0.00 0.41 0.21 68 1011.3
20260510022721 52 70 0.0 0.0 0.00 0.41 0.21 68 1011.3
20260510022414 52 70 0.0 0.0 0.00 0.41 0.21 68 1011.3
20260510022116 52 70 0.0 0.0 0.00 0.41 0.21 68 1011.2
20260510021808 52 70 0.0 0.0 0.00 0.41 0.21 68 1011.2
20260510021505 52 70 0.0 0.0 0.00 0.41 0.21 68 1011.2
20260510021153 52 70 0.0 0.0 0.00 0.41 0.21 68 1011.3
20260510020423 53 70 0.0 0.0 0.00 0.41 0.21 67 1011.3
20260510020118 53 70 0.0 0.0 0.00 0.41 0.21 67 1011.3
20260510015815 53 70 0.0 0.0 0.00 0.41 0.21 67 1011.3
20260510015511 53 70 0.0 0.0 0.00 0.41 0.21 67 1011.2
20260510015208 53 70 0.0 0.0 0.00 0.41 0.21 67 1011.2
20260510014911 53 70 0.0 0.0 0.00 0.41 0.21 67 1011.1
20260510014610 53 70 0.0 0.0 0.00 0.41 0.21 67 1011.1
20260510014301 54 70 0.0 0.0 0.00 0.41 0.21 67 1011.0
20260510013951 54 70 0.0 0.0 0.00 0.41 0.21 67 1010.9
20260510013646 54 70 0.0 0.0 0.00 0.41 0.21 67 1010.9
20260510012918 54 70 0.0 0.0 0.00 0.41 0.21 67 1010.8
20260510012623 54 70 0.0 0.0 0.00 0.41 0.21 67 1010.7
20260510012316 54 70 0.0 0.0 0.00 0.41 0.21 67 1010.7
20260510012013 55 70 0.0 0.0 0.00 0.41 0.21 67 1010.6
20260510011707 55 70 0.0 0.0 0.00 0.41 0.21 67 1010.6
20260510011406 55 70 0.0 0.0 0.00 0.41 0.21 67 1010.5
20260510011057 55 70 0.0 0.0 0.00 0.41 0.21 67 1010.5
20260510010745 55 70 0.0 0.0 0.00 0.41 0.21 67 1010.4
20260510010434 55 70 0.0 0.0 0.00 0.41 0.21 67 1010.4
20260510010137 55 70 0.0 0.0 0.00 0.41 0.21 67 1010.4
20260510005000 56 70 0.0 0.0 0.00 0.41 0.21 67 1010.2
20260510004656 56 70 0.0 0.0 0.00 0.41 0.21 67 1010.2
20260510004358 57 69 0.0 0.0 0.00 0.41 0.21 67 1010.1
20260510004048 57 69 0.0 0.0 0.00 0.41 0.21 67 1010.1
20260510003741 57 69 0.0 0.0 0.00 0.41 0.21 66 1010.0
20260510003430 57 69 0.0 0.0 0.00 0.41 0.21 66 1009.9
20260510003130 57 69 0.0 0.0 0.00 0.41 0.21 66 1010.0
20260510002820 58 69 0.0 0.0 0.00 0.41 0.21 66 1010.0
20260510002523 58 69 0.0 0.0 0.00 0.41 0.21 66 1010.1
20260510002224 58 69 0.0 0.0 0.00 0.41 0.21 66 1010.0
20260510001918 58 69 0.0 0.0 0.00 0.41 0.21 66 1010.0
20260510001614 58 69 0.0 0.0 0.00 0.41 0.21 66 1010.1
20260510001316 59 69 0.0 0.0 0.00 0.41 0.21 66 1010.1
20260510001009 59 69 0.0 0.0 0.00 0.41 0.21 66 1010.1
20260510000708 59 69 0.0 0.0 0.00 0.41 0.21 66 1010.0
20260510000358 59 69 0.0 0.0 0.00 0.41 0.21 66 1010.0
20260509235629 60 69 0.0 0.0 0.00 0.41 0.21 66 1009.9
20260509235331 60 69 0.0 0.0 0.00 0.41 0.21 66 1009.9
20260509235030 60 69 0.0 0.0 0.00 0.41 0.21 65 1009.7
20260509234722 60 69 0.0 0.0 0.00 0.41 0.21 65 1009.7
20260509234412 60 69 0.0 0.0 0.00 0.41 0.21 65 1009.6
20260509233659 61 69 0.0 0.0 0.00 0.41 0.21 65 1009.6
20260509233351 61 69 0.0 0.0 0.00 0.41 0.21 65 1009.8
20260509233052 61 69 0.0 0.0 0.00 0.41 0.21 65 1009.8
20260509232753 61 69 0.0 1.0 0.00 0.41 0.21 64 1009.8
20260509232449 61 78 0.0 0.0 0.00 0.41 0.21 64 1009.8
20260509232136 61 78 0.0 0.0 0.00 0.41 0.21 64 1009.6
20260509231831 61 78 0.0 0.0 0.00 0.41 0.21 64 1009.7
20260509231527 61 78 0.0 0.0 0.00 0.41 0.21 64 1009.7
20260509231218 61 78 0.0 0.0 0.00 0.41 0.21 63 1009.8
20260509230917 61 79 0.0 0.0 0.00 0.41 0.21 63 1009.7
20260509230620 61 80 0.0 1.0 0.00 0.41 0.21 63 1009.6
20260509230322 61 79 0.0 1.0 0.00 0.41 0.21 63 1009.7
20260509230023 61 53 0.0 0.0 0.00 0.41 0.21 63 1009.8
20260509225727 62 53 0.0 0.0 0.00 0.41 0.21 63 1009.8
20260509225424 61 188 0.0 0.0 0.00 0.41 0.21 63 1009.8
20260509225115 62 188 0.0 0.0 0.00 0.41 0.21 63 1009.8
20260509224806 61 188 0.0 0.0 0.00 0.41 0.21 63 1009.8
20260509224043 61 49 0.0 2.0 0.00 0.41 0.21 61 1009.8
20260509223728 61 60 0.0 2.0 0.00 0.41 0.21 62 1009.8
20260509223429 61 71 0.0 2.0 0.00 0.41 0.21 62 1009.8
20260509223116 61 69 0.0 2.0 0.00 0.41 0.21 61 1009.8
20260509222812 61 82 0.0 3.0 0.00 0.41 0.21 63 1009.8
20260509222504 61 65 0.0 3.0 0.00 0.41 0.21 61 1009.8
20260509222154 61 69 0.0 3.0 0.00 0.41 0.21 62 1009.9
20260509221846 61 195 1.0 4.0 0.00 0.41 0.21 62 1009.8
20260509221535 61 217 1.0 4.0 0.00 0.41 0.21 62 1009.8
20260509221227 61 273 1.0 4.0 0.00 0.41 0.21 62 1009.8
20260509220924 61 202 1.0 4.0 0.00 0.41 0.21 62 1009.8